Flag for Falkland Islands Weather past 2 weeks in Stanley, Falkland Islands

Now
28 °F

Passing clouds.


Feels Like: 16 °F
Forecast: 33 / 38 °F
Wind: 17 mph from West

Location: Mount Pleasant Airport

Current Time: Jul 23, 2014 at 9:34:04 PM

Latest Report: Jul 23, 2014 at 8:50 PM


Visibility: N/A

Pressure: 29.33 "Hg

Humidity: 86%

Dew point: 25 °F

Location of StanleyLocation

Historic Weather in Stanley — Graph

°F

Stanley temperature yesterday

Maximum temperature yesterday: 41 °F (at 1:50 PM)
Minimum temperature yesterday: 32 °F (at 10:50 PM)
Average temperature yesterday: 36 °F

Past Weeks' High & Low Weather Summary

 TemperatureHumidityPressure
High46 °F (Jul 13, 11:50 PM)100% (Jul 8, 10:50 PM)30.07 "Hg (Jul 8, 10:50 PM)
Low27 °F (Jul 9, 2:50 AM)66% (Jul 18, 1:50 PM)29.30 "Hg (Jul 16, 2:50 AM)
Average38 °F91%29.76 "Hg
* Reported Jul 8 7:50 PM — Jul 23 7:50 PM, Stanley, Weather by CustomWeather, © 2014

Note: Actual official high and low records may vary slightly from our data, if they occured in-between our weather recording intervals... More about our weather records

Advertising

Stanley weather history for previous 24 hours

 ConditionsComfort  
Time TempWeatherWind HumidityBarometerVisibility
7:50 PM
Jul 23
27 °FClear.17 mph93%29.33 "Hg10 mi
6:50 PM28 °FPassing clouds.14 mph93%29.33 "HgN/A
5:50 PM30 °FPassing clouds.18 mph80%29.30 "HgN/A
4:50 PM30 °FPassing clouds.15 mph86%29.30 "HgN/A
3:50 PM32 °FScattered showers. Partly sunny.26 mph80%29.30 "HgN/A
2:50 PM32 °FScattered showers. Partly sunny.13 mph87%29.30 "HgN/A
1:50 PM32 °FPartly sunny.14 mph93%29.30 "HgN/A
12:50 PM32 °FPartly sunny.12 mph93%29.30 "HgN/A
11:50 AM32 °FSnow. Dense fog.10 mph100%29.30 "Hg1 mi
10:50 AM34 °FSnow flurries. Partly sunny.23 mph93%29.33 "Hg4 mi
9:50 AM36 °FPartly sunny.17 mph81%29.33 "HgN/A
8:50 AM34 °FPassing clouds.15 mph81%29.36 "HgN/A
7:50 AM32 °FClear.13 mph87%29.36 "Hg10 mi
6:50 AM34 °FClear.20 mph81%29.36 "Hg10 mi
5:50 AM34 °FClear.25 mph81%29.36 "Hg10 mi
4:50 AM34 °FClear.21 mph93%29.36 "Hg10 mi
2:50 AM34 °FPartly cloudy.21 mph93%29.36 "HgN/A
1:50 AM32 °FPassing clouds.22 mph100%29.33 "HgN/A
12:50 AM34 °FClear.13 mph93%29.36 "Hg10 mi
11:50 PM
Jul 22
34 °FClear.15 mph93%29.36 "Hg10 mi
10:50 PM32 °FLow clouds.15 mph100%29.39 "HgN/A
9:50 PM34 °FLight rain. Low clouds.16 mph93%29.39 "Hg2 mi
Weather by CustomWeather, © 2014

See weather overviewHow to use our weather pages